Showing default

TIROS 10, 1430

Orbit data source: Space-Track

TIROS 10, 1430 is a payload satellite owned by ESSA (US) in SSO that was launched on Fri, 02 Jul 1965 UTC via a THOR DELTA C launch vehicle from the Air Force Eastern Test Range (AFETR). Payload-class satellites include a variety of spacecraft equipped with specific instruments for various scientific and technological missions. These include communications satellites like Starlink; space stations such as the ISS; scientific satellites like the Hubble; Earth observation satellites from companies like Planet Labs, Umbra, and HawkEye 360; GPS; miniature CubeSats for education and research; and military/defense satellites.

Loading next visibility...
Identifier
1430, 1965-051A
Orbit
SSO
Last TLE update
10 hours ago
Origin
Manufacturer
RCA/East Windsor
Mission
Non-operational Civil Weather
Bus & Motor
TIROS I, Unknown motor
Mass
127 kg wet, 127 kg dry
Launch date (UTC)
1965-07-02 (60 years ago)
Launch vehicle
THOR DELTA C
Launch site
Air Force Eastern Test Range (AFETR)
Object type
Payload
Rocket body
Debris
Shape & HBR
Cyl, 1.07 m
Radar Cross Section
0.920 m², Medium (>0.1 m² and < 1m²)

Expand to show TLE details & history

TLE from 10 hours ago
0 TIROS 10
1  1430U 65051A   25128.92846536  .00000290  00000-0  10148-3 0  9994
2  1430  98.4636 246.0479 0054891 212.0410 147.7438 14.41394798138102
Epoch: 2025-05-08T22:16Z
Definitive object data (Epoch: 2025-05-08T22:16:59.407Z)
Latitude
-0.00002°
Longitude
44.80845°
Altitude
790.019 km
Speed
7.441 km/s
True Right ascension
16h 24m 11s
True Declination
0° 00' 00"
Sunlit
Object was in full shadow at TLE epoch
Visualization TLE readout
Latitude
-18.66679°
Longitude
48.08352°
Altitude
786.416 km
Speed
7.446 km/s
Apparent Right ascension
17h 19m 38s
Apparent Declination
-73° 02' 20"
Sunlit
Object is in full shadow
Visualization observer readout
Local Sidereal Time
16:20:37
Azimuth
175.356° S
Elevation
-23.415°
Doppler factor
1
Orbital elements
Apogee altitude
790.145 km
Perigee altitude
711.879 km
Semi-major axis
7,129.149 km
Eccentricity
0.0054891
Inclination
98.4636°
RAAN
246.0479°
Arg. of periapsis
212.041°
True anomaly
148.07756°
Mean anomaly
147.7438°
Eccentric anomaly
147.91088°
Mean motion
3.60568 °/min
BSTAR
0.00010148
Orbital period
99.84 mins
Loading maneuver chart data...
Loading SW <> Apogee altitude chart data...
Loading historical data...
Loading historical data...
Loading historical data...
Loading historical data...
Loading historical data...
Loading historical data...
Loading historical data...
Other satellites on launch #51 in the year 1965 (1965-07-02 UTC)

TIROS 10 Visibility forecast

Observer location: undefined°, undefined°

Span
Click to sort rows by Start time (UTC) header in descending order
Start Az.
Max El. time (UTC)
Max El. Az.
Max El.
End time (UTC)
End Az.
8 mins2025-05-09 08:23:30.133Z197.63° SSW2025-05-09 08:27:30.133Z257.515° W31.552°2025-05-09 08:31:30.133Z324.652° NNW
7 mins2025-05-09 20:32:30.133Z21.099° NNE2025-05-09 20:35:30.133Z94.132° ESE43.675°2025-05-09 20:39:30.133Z185.938° SSW
9 mins2025-05-10 07:43:30.133Z164.805° S2025-05-10 07:47:30.133Z130.007° SE44.985°2025-05-10 07:52:30.133Z347.113° N
|